Weather in Byshiv

Ukraine / Kyiv Region     50°16′01″N   29°52′54″E
temp.,
°C
wind,
m/s
gust,
m/s
humid.,
%
clouds,
%
prec.,
mm/h
press.,
hPa
HPBL,
m
26 february, fri
fri2623:00+2w369784 0.0 1028105
02:00+2w339755 0.0 102758
05:00+2wsw359411 0.0 102594
08:00+2wsw48925 0.0 1023191
11:00+5w410942 0.0 1022277
14:00+8w410914 0.0 1020384
17:00+6w389339 0.0 1019159
20:00+4w489665 0.0 1019157
27 february, sat
sat2723:00+3w3698100 0.0 1018115
02:00+4nw41097100 2.4 1018419
05:00+2wnw41193100 0.3 1017415
08:00+2wnw5129199 0.3 1017752
11:00+4wnw7118596 0.0 1017881
14:00+4wnw6108597 0.1 1017914
17:00+2wnw41098100 0.3 1017451
20:00+2nw499499 0.6 1018437
28 february, sun
sun2823:00+1nw4998100 0.5 1019434
02:00+1nnw5997100 0.8 1021492
05:000nnw499698 0.4 1022430
08:000nnw6109799 0.9 1024589
11:00+2nnw588091 0.1 1024876
14:00+1nw588096 0.1 1025806
17:00+1nw4885100 0.1 1025754
20:000nw4987100 0.2 1026586
1 march, mon
mon123:00−1wnw3788100 0.1 1026231
02:00−1nw369496 0.1 1028188
05:00−2nnw269890 0.0 1028201
08:00−1nnw259567 0.0 1030238
11:00+2n358381 0.0 1031653
14:00+2nnw467690 0.1 1031814
17:00+2nw3680100 0.0 1031329
20:00+1wnw2686100 0.1 1032180
2 march, tue
tue223:000wnw379286 0.0 1032201
02:00+1w488893 0.0 1032296
05:00+1w4995100 0.0 1030269
08:00+2wnw51390100 0.0 1029562
11:00+5nw6117798 0.0 1029699
14:00+7nw6107499 0.0 1028660
17:00+5nw4108199 0.0 1028442
20:00+3nw4128863 0.0 1029333